sat.trackr.live / text

‹ back to catalog

STARLINK-4356

NORAD 53224 · 2022-084AM

PAYLOAD ACTIVE UNKNOWN

§ Identity

Operator
Country
US
Launch date
2022-07-22
Launch site
AFWTR
Launch vehicle
Mass (kg)
RCS (m²)

Purposes: comms

External: N2YO · Heavens-Above · Gunter

§ Orbital elements

Epoch: 2026-09-19T22:16:57.686016Z

Period
93.91 min
Inclination
97.2832°
Eccentricity
0.0001132
Mean motion
15.33436247 rev/d
Perigee alt
464.8 km
Apogee alt
466.3 km
Semi-major
6,843.7 km
B*
2.0741e-5
RAAN
317.7151°
Arg perigee
103.5602°
Mean anomaly
256.5767°
Rev number
22,860

§ Raw data

STARLINK-43561 53224U 22084AM  26262.92844544  .00000594  00000+0  20741-4 0  99952 53224  97.2832 317.7151 0001132 103.5602 256.5767 15.33436247228602

JSON: /api/v1/satellites/53224 · /tle

For live sub-satellite position, see the globe view (requires WebGL).

§ Visibility from observer

Set your observer location to see the next 7 days of passes ≥ 10°. The values pass through the URL so the page stays shareable.

No JS? Fill the form by hand. The geolocation button needs JavaScript.